This is the latest recevied weather packets stored in our database for station/object W4EDL-13. If no packets are shown the sender has not sent any weather packets the latest 10 day(s).
| Time | Temp. | Humidity | Pressure | Rain* | Wind** | Luminosity | Snow |
|---|---|---|---|---|---|---|---|
| 1778108453 | 27.78° C | 49% | 1005.9 hPa | - | - | - | - |
| 1778107853 | 28.33° C | 49% | 1005.9 hPa | - | - | - | - |
| 1778107252 | 28.33° C | 47% | 1005.9 hPa | - | - | - | - |
| 1778106652 | 29.44° C | 45% | 1005.9 hPa | - | - | - | - |
| 1778106051 | 30° C | 44% | 1006.3 hPa | - | - | - | - |
| 1778105450 | 30° C | 45% | 1006.3 hPa | - | - | - | - |
| 1778104850 | 30° C | 44% | 1006.3 hPa | - | - | - | - |
| 1778104249 | 30° C | 44% | 1006.3 hPa | - | - | - | - |
| 1778103649 | 30.56° C | 42% | 1005.9 hPa | - | - | - | - |
| 1778103048 | 30.56° C | 44% | 1006.3 hPa | - | - | - | - |
| 1778102447 | 30.56° C | 43% | 1005.9 hPa | - | - | - | - |
| 1778101847 | 31.11° C | 41% | 1005.9 hPa | - | - | - | - |
| 1778101246 | 31.67° C | 40% | 1005.9 hPa | - | - | - | - |
| 1778100646 | 31.67° C | 43% | 1005.9 hPa | - | - | - | - |
| 1778100045 | 31.67° C | 44% | 1006.3 hPa | - | - | - | - |
| 1778099445 | 31.11° C | 42% | 1006.3 hPa | - | - | - | - |
| 1778098844 | 31.67° C | 43% | 1006.3 hPa | - | - | - | - |
| 1778098243 | 31.11° C | 42% | 1006.3 hPa | - | - | - | - |
| 1778097643 | 31.67° C | 40% | 1006.3 hPa | - | - | - | - |
| 1778097042 | 32.22° C | 40% | 1006.3 hPa | - | - | - | - |
| 1778096442 | 31.67° C | 40% | 1006.6 hPa | - | - | - | - |
| 1778095841 | 32.22° C | 39% | 1006.6 hPa | - | - | - | - |
| 1778095240 | 31.67° C | 40% | 1006.6 hPa | - | - | - | - |
| 1778094640 | 32.22° C | 40% | 1007.3 hPa | - | - | - | - |
| 1778094039 | 32.78° C | 41% | 1007.3 hPa | - | - | - | - |
* Rain since midnight (hover to see other rain measurements)
** Current wind speed in m/s (hover to see current wind gust speed)